contact:dominique.lefevre@mio.osupytheas.fr, maurice.libes@osupytheas.fr, didier.mallarino@osupytheas.fr
Project:EMSO http://www.emso-fr.org/EMSO-France
Depth: 2436.0 m
Title:EMSO Ligure Ouest : Data MII capteur AQUADOPP
Date,Latitude,Longitude,X_East,Y_North,Z_Up,Amplitude_X,Amplitude_Y,Amplitude_Z,Batterie,SoundSpeed,Heading,Pitch,Roll,Pressure,TIS,Speed,Direction
, degrees North, degrees East, m.s-1, m.s-1,m.s-1, 1, 1, 1, Volt, m.s-1, degree, degree, degree, dbar, degree_C, m.s-1, degree
2021-08-26T00:04:03,42.805,6.029,0.023,0.008,-0.01,100.0,106.0,101.0,13.4,1505.2,326.9,-0.8,1.9,2470.596,13.28,0.024,70.8
2021-08-26T00:07:03,42.805,6.029,-0.004,0.006,-0.001,100.0,101.0,100.0,13.4,1505.2,330.0,-0.8,1.9,2470.598,13.28,0.007,326.3
2021-08-26T00:10:03,42.805,6.029,0.008,0.005,0.046,100.0,101.0,100.0,13.4,1505.2,330.4,-0.8,1.8,2470.614,13.28,0.009,58.0
2021-08-26T00:13:03,42.805,6.029,-0.007,-0.013,-0.02,101.0,101.0,99.0,13.4,1505.2,327.4,-0.7,1.8,2470.563,13.28,0.014,208.3
2021-08-26T00:16:03,42.805,6.029,0.008,-0.008,-0.022,100.0,101.0,101.0,13.3,1505.2,327.1,-0.8,1.8,2470.577,13.28,0.011,135.0
2021-08-26T00:19:03,42.805,6.029,0.008,-0.004,-0.005,101.0,102.0,100.0,13.4,1505.2,328.8,-0.7,1.8,2470.603,13.28,0.008,116.6
2021-08-26T00:22:03,42.805,6.029,-0.009,0.003,-0.008,99.0,102.0,101.0,13.4,1505.2,325.7,-0.8,1.8,2470.561,13.28,0.009,288.4
2021-08-26T00:25:03,42.805,6.029,0.011,-0.01,0.018,101.0,101.0,100.0,13.4,1505.2,328.5,-0.7,1.8,2470.6,13.28,0.014,132.3
2021-08-26T00:28:03,42.805,6.029,-0.017,0.0,0.002,101.0,101.0,100.0,13.4,1505.2,327.1,-0.8,1.8,2470.596,13.28,0.017,270.0
2021-08-26T00:31:03,42.805,6.029,0.007,-0.017,0.0,101.0,101.0,100.0,13.4,1505.2,330.4,-0.8,1.8,2470.563,13.28,0.018,157.6
2021-08-26T00:34:03,42.805,6.029,0.032,-0.005,0.003,101.0,102.0,101.0,13.4,1505.2,330.6,-0.8,1.8,2470.593,13.28,0.032,98.9
2021-08-26T00:37:03,42.805,6.029,0.01,0.022,0.026,101.0,100.0,100.0,13.4,1505.2,327.3,-0.8,1.8,2470.599,13.28,0.024,24.4
2021-08-26T00:40:03,42.805,6.029,0.036,-0.003,0.004,100.0,102.0,100.0,13.4,1505.2,326.5,-0.8,1.8,2470.619,13.28,0.036,94.8
2021-08-26T00:43:03,42.805,6.029,0.036,0.0,-0.005,101.0,100.0,100.0,13.4,1505.2,328.6,-0.8,1.8,2470.566,13.28,0.036,90.0
2021-08-26T00:46:03,42.805,6.029,-0.013,-0.005,0.017,100.0,101.0,100.0,13.3,1505.2,325.4,-0.7,1.8,2470.596,13.28,0.013,249.0
2021-08-26T00:49:03,42.805,6.029,0.004,0.004,0.015,100.0,101.0,100.0,13.4,1505.2,329.4,-0.7,1.8,2470.543,13.28,0.005,45.0
2021-08-26T00:52:03,42.805,6.029,-0.002,-0.008,0.016,100.0,101.0,101.0,13.3,1505.2,329.6,-0.7,1.8,2470.574,13.28,0.008,194.0
2021-08-26T00:55:03,42.805,6.029,-0.005,-0.026,-0.022,100.0,100.0,101.0,13.4,1505.2,329.7,-0.8,1.8,2470.568,13.28,0.026,190.9
2021-08-26T00:58:03,42.805,6.029,0.014,0.01,0.048,101.0,101.0,100.0,13.4,1505.2,330.2,-0.7,1.8,2470.532,13.28,0.017,54.5
2021-08-26T01:04:03,42.805,6.029,-0.018,-0.01,0.012,103.0,105.0,102.0,13.3,1505.2,326.9,-0.8,1.8,2470.613,13.28,0.02,240.9
2021-08-26T01:07:03,42.805,6.029,0.013,0.003,0.034,102.0,103.0,102.0,13.4,1505.2,328.9,-0.8,1.8,2470.61,13.28,0.013,77.0
2021-08-26T01:10:03,42.805,6.029,0.011,-0.019,-0.014,102.0,102.0,101.0,13.4,1505.2,329.6,-0.8,1.8,2470.584,13.28,0.021,149.9
2021-08-26T01:13:03,42.805,6.029,-0.002,0.004,0.021,101.0,101.0,100.0,13.4,1505.2,327.8,-0.7,1.8,2470.574,13.28,0.004,333.4
2021-08-26T01:16:03,42.805,6.029,0.007,0.017,0.02,103.0,102.0,99.0,13.4,1505.2,328.9,-0.7,1.8,2470.597,13.28,0.018,22.4
2021-08-26T01:19:03,42.805,6.029,0.005,-0.001,0.013,101.0,101.0,99.0,13.3,1505.2,325.3,-0.8,1.8,2470.559,13.28,0.005,101.3
2021-08-26T01:22:03,42.805,6.029,0.0,0.007,-0.006,102.0,101.0,100.0,13.4,1505.2,325.3,-0.8,1.8,2470.576,13.28,0.007,0.0
2021-08-26T01:25:03,42.805,6.029,0.018,-0.012,-0.023,102.0,100.0,102.0,13.4,1505.2,327.9,-0.7,1.9,2470.553,13.28,0.021,123.7
2021-08-26T01:28:03,42.805,6.029,0.011,-0.014,0.0,98.0,101.0,100.0,13.4,1505.2,327.9,-0.8,1.8,2470.594,13.28,0.017,141.8
2021-08-26T01:31:03,42.805,6.029,0.022,-0.006,-0.009,100.0,102.0,100.0,13.4,1505.2,326.6,-0.8,1.8,2470.572,13.28,0.022,105.3
2021-08-26T01:34:03,42.805,6.029,0.01,-0.004,0.0,100.0,101.0,100.0,13.4,1505.2,330.6,-0.7,1.8,2470.543,13.28,0.01,111.8
2021-08-26T01:37:03,42.805,6.029,0.025,-0.012,-0.006,100.0,101.0,100.0,13.3,1505.2,329.1,-0.7,1.8,2470.575,13.28,0.027,115.6
2021-08-26T01:40:03,42.805,6.029,0.037,0.001,0.013,100.0,102.0,100.0,13.4,1505.2,328.1,-0.7,1.8,2470.545,13.28,0.037,88.5
2021-08-26T01:43:03,42.805,6.029,0.023,0.0,0.014,101.0,99.0,100.0,13.3,1505.2,329.6,-0.7,1.8,2470.531,13.28,0.023,90.0
2021-08-26T01:46:03,42.805,6.029,-0.012,0.006,-0.029,100.0,101.0,100.0,13.3,1505.2,324.7,-0.8,1.8,2470.557,13.28,0.013,296.6
2021-08-26T01:49:03,42.805,6.029,0.023,-0.008,0.006,101.0,100.0,100.0,13.4,1505.2,329.3,-0.8,1.8,2470.555,13.28,0.024,109.2
2021-08-26T01:52:03,42.805,6.029,0.031,-0.009,0.005,101.0,101.0,99.0,13.4,1505.2,328.4,-0.7,1.8,2470.542,13.28,0.032,106.2
2021-08-26T01:55:03,42.805,6.029,0.019,0.004,0.025,99.0,100.0,101.0,13.3,1505.2,327.1,-0.8,1.8,2470.531,13.28,0.019,78.1
2021-08-26T01:58:03,42.805,6.029,0.008,0.018,0.015,101.0,101.0,99.0,13.4,1505.2,327.1,-0.7,1.8,2470.517,13.28,0.019,24.0
2021-08-26T02:04:03,42.805,6.029,0.034,-0.012,-0.01,99.0,103.0,99.0,13.4,1505.2,325.7,-0.8,1.8,2470.535,13.28,0.036,109.4
2021-08-26T02:07:03,42.805,6.029,0.028,-0.012,-0.004,100.0,101.0,100.0,13.4,1505.2,329.5,-0.8,1.8,2470.525,13.28,0.03,113.2
2021-08-26T02:10:03,42.805,6.029,0.024,-0.004,-0.006,101.0,102.0,100.0,13.3,1505.2,328.1,-0.8,1.8,2470.553,13.28,0.024,99.5
2021-08-26T02:13:03,42.805,6.029,0.032,-0.019,0.028,100.0,103.0,99.0,13.4,1505.2,328.1,-0.8,1.8,2470.532,13.28,0.037,120.7
2021-08-26T02:16:03,42.805,6.029,0.018,0.008,0.01,100.0,101.0,99.0,13.4,1505.2,329.7,-0.8,1.8,2470.542,13.28,0.019,66.0
2021-08-26T02:19:03,42.805,6.029,0.021,-0.003,0.0,101.0,99.0,101.0,13.4,1505.2,327.2,-0.7,1.8,2470.534,13.28,0.021,98.1
2021-08-26T02:22:03,42.805,6.029,0.028,0.017,0.019,101.0,102.0,101.0,13.3,1505.2,328.0,-0.8,1.8,2470.526,13.28,0.032,58.7
2021-08-26T02:25:03,42.805,6.029,0.004,-0.007,-0.01,101.0,102.0,99.0,13.3,1505.2,326.6,-0.8,1.8,2470.542,13.28,0.008,150.3
2021-08-26T02:28:03,42.805,6.029,-0.022,0.028,0.003,99.0,100.0,101.0,13.4,1505.2,328.4,-0.7,1.9,2470.513,13.28,0.035,321.8
2021-08-26T02:31:03,42.805,6.029,-0.006,0.0,0.009,100.0,101.0,100.0,13.4,1505.2,328.9,-0.7,1.8,2470.501,13.28,0.006,270.0
2021-08-26T02:34:03,42.805,6.029,0.016,-0.022,-0.014,100.0,101.0,99.0,13.3,1505.2,328.2,-0.7,1.8,2470.533,13.28,0.027,144.0
2021-08-26T02:37:03,42.805,6.029,0.034,-0.001,0.007,100.0,101.0,100.0,13.4,1505.2,327.2,-0.7,1.8,2470.48,13.28,0.034,91.7
2021-08-26T02:40:03,42.805,6.029,0.02,-0.013,0.006,101.0,101.0,99.0,13.4,1505.2,325.1,-0.8,1.9,2470.527,13.28,0.023,123.0
2021-08-26T02:43:03,42.805,6.029,0.0,-0.009,0.013,101.0,102.0,100.0,13.4,1505.2,330.4,-0.7,1.8,2470.511,13.28,0.009,180.0
2021-08-26T02:46:03,42.805,6.029,0.026,-0.016,0.008,100.0,102.0,99.0,13.3,1505.2,328.3,-0.8,1.8,2470.494,13.28,0.03,121.6
2021-08-26T02:49:03,42.805,6.029,0.009,0.004,0.02,101.0,103.0,99.0,13.4,1505.2,325.2,-0.8,1.8,2470.51,13.28,0.009,66.0
2021-08-26T02:52:03,42.805,6.029,0.001,0.018,0.002,100.0,101.0,100.0,13.3,1505.2,329.7,-0.7,1.8,2470.526,13.28,0.018,3.2
2021-08-26T02:55:03,42.805,6.029,-0.006,-0.002,0.014,102.0,100.0,99.0,13.4,1505.2,327.8,-0.8,1.8,2470.469,13.28,0.006,251.6
2021-08-26T02:58:03,42.805,6.029,0.006,-0.001,0.008,101.0,101.0,99.0,13.4,1505.2,327.3,-0.8,1.8,2470.442,13.28,0.006,99.5
2021-08-26T03:04:03,42.805,6.029,0.002,0.014,0.024,101.0,102.0,99.0,13.3,1505.2,326.9,-0.8,1.8,2470.52,13.28,0.014,8.1
2021-08-26T03:07:03,42.805,6.029,0.023,0.0,0.049,102.0,100.0,100.0,13.4,1505.2,329.5,-0.8,1.8,2470.489,13.28,0.023,90.0
2021-08-26T03:10:03,42.805,6.029,-0.002,0.01,0.039,102.0,102.0,100.0,13.3,1505.2,329.5,-0.8,1.8,2470.456,13.28,0.01,348.7
2021-08-26T03:13:03,42.805,6.029,0.032,-0.009,-0.012,102.0,100.0,100.0,13.4,1505.2,325.8,-0.8,1.8,2470.475,13.28,0.033,105.7
2021-08-26T03:16:03,42.805,6.029,0.018,0.014,0.02,101.0,101.0,99.0,13.4,1505.2,329.4,-0.7,1.8,2470.483,13.28,0.022,52.1
2021-08-26T03:19:03,42.805,6.029,0.04,-0.004,0.004,102.0,101.0,99.0,13.4,1505.2,327.6,-0.7,1.8,2470.476,13.28,0.04,95.7
2021-08-26T03:22:03,42.805,6.029,0.006,-0.009,0.011,100.0,102.0,100.0,13.4,1505.2,330.0,-0.8,1.9,2470.462,13.28,0.01,146.3
2021-08-26T03:25:03,42.805,6.029,0.0,0.003,-0.006,101.0,102.0,100.0,13.4,1505.2,330.4,-0.7,1.8,2470.47,13.28,0.003,0.0
2021-08-26T03:28:03,42.805,6.029,0.021,0.02,0.04,101.0,102.0,100.0,13.3,1505.2,328.7,-0.7,1.8,2470.494,13.28,0.028,46.4
2021-08-26T03:31:03,42.805,6.029,0.036,-0.014,-0.009,100.0,101.0,100.0,13.4,1505.2,326.0,-0.8,1.8,2470.463,13.28,0.038,111.2
2021-08-26T03:34:03,42.805,6.029,0.038,0.002,0.026,100.0,100.0,101.0,13.4,1505.2,325.6,-0.7,1.8,2470.438,13.28,0.038,87.0
2021-08-26T03:37:03,42.805,6.029,0.001,-0.007,-0.023,100.0,101.0,100.0,13.3,1505.2,325.7,-0.7,1.8,2470.455,13.28,0.007,171.9
2021-08-26T03:40:02,42.805,6.029,0.0,0.001,0.029,100.0,102.0,100.0,13.4,1505.2,326.0,-0.7,1.8,2470.474,13.28,0.001,0.0
2021-08-26T03:43:03,42.805,6.029,0.018,0.006,0.004,101.0,101.0,100.0,13.4,1505.2,330.6,-0.7,1.9,2470.467,13.28,0.018,71.6
2021-08-26T03:46:03,42.805,6.029,0.025,-0.005,-0.003,101.0,100.0,101.0,13.4,1505.2,327.5,-0.8,1.8,2470.465,13.28,0.025,101.3
2021-08-26T03:49:03,42.805,6.029,0.022,0.008,-0.001,100.0,102.0,100.0,13.4,1505.2,330.7,-0.8,1.8,2470.458,13.28,0.023,70.0
2021-08-26T03:52:03,42.805,6.029,-0.016,-0.023,-0.019,102.0,99.0,101.0,13.4,1505.2,330.8,-0.8,1.8,2470.427,13.28,0.028,214.8
2021-08-26T03:55:03,42.805,6.029,0.016,0.007,-0.009,100.0,102.0,100.0,13.4,1505.2,330.6,-0.7,1.8,2470.492,13.28,0.017,66.4
2021-08-26T03:58:03,42.805,6.029,0.029,0.016,0.016,100.0,101.0,101.0,13.3,1505.2,326.8,-0.8,1.8,2470.438,13.28,0.033,61.1
2021-08-26T04:04:02,42.805,6.029,0.043,0.016,0.013,101.0,101.0,101.0,13.4,1505.2,328.5,-0.8,1.8,2470.49,13.28,0.045,69.6
2021-08-26T04:07:02,42.805,6.029,0.029,-0.005,0.034,100.0,101.0,100.0,13.4,1505.2,326.9,-0.8,1.9,2470.486,13.28,0.029,99.8
2021-08-26T04:10:03,42.805,6.029,0.024,0.007,0.001,100.0,101.0,101.0,13.4,1505.2,326.7,-0.8,1.8,2470.463,13.28,0.025,73.7
2021-08-26T04:13:03,42.805,6.029,0.031,0.001,-0.009,101.0,101.0,101.0,13.3,1505.2,325.4,-0.8,1.8,2470.476,13.28,0.031,88.2
2021-08-26T04:16:03,42.805,6.029,0.016,0.015,-0.006,100.0,101.0,101.0,13.3,1505.2,329.5,-0.7,1.8,2470.453,13.28,0.021,46.9
2021-08-26T04:19:02,42.805,6.029,-0.011,0.003,0.0,100.0,103.0,100.0,13.4,1505.2,330.6,-0.7,1.8,2470.466,13.28,0.011,285.3
2021-08-26T04:22:02,42.805,6.029,0.015,0.001,-0.014,100.0,101.0,101.0,13.4,1505.2,326.8,-0.7,1.8,2470.432,13.28,0.015,86.2
2021-08-26T04:25:02,42.805,6.029,-0.01,0.01,0.022,99.0,101.0,101.0,13.4,1505.2,327.0,-0.8,1.9,2470.479,13.28,0.014,315.0
2021-08-26T04:28:03,42.805,6.029,0.039,-0.014,-0.002,101.0,103.0,100.0,13.4,1505.2,327.4,-0.8,1.8,2470.467,13.28,0.041,109.7
2021-08-26T04:31:02,42.805,6.029,0.024,0.021,0.036,103.0,103.0,99.0,13.3,1505.2,327.7,-0.8,1.8,2470.441,13.28,0.031,48.8
2021-08-26T04:34:03,42.805,6.029,0.015,-0.007,0.009,100.0,100.0,101.0,13.3,1505.2,329.0,-0.8,1.9,2470.474,13.28,0.016,115.0
2021-08-26T04:37:02,42.805,6.029,0.023,-0.004,0.013,102.0,100.0,100.0,13.3,1505.2,329.3,-0.8,1.8,2470.451,13.28,0.023,99.9
2021-08-26T04:40:02,42.805,6.029,0.015,-0.002,0.014,100.0,103.0,100.0,13.4,1505.2,329.6,-0.8,1.8,2470.492,13.28,0.015,97.6
2021-08-26T04:43:02,42.805,6.029,0.01,0.011,0.011,101.0,102.0,101.0,13.4,1505.2,328.4,-0.7,1.8,2470.449,13.28,0.014,42.3
2021-08-26T04:46:03,42.805,6.029,0.008,0.022,0.022,101.0,102.0,101.0,13.3,1505.2,325.8,-0.7,1.8,2470.471,13.28,0.023,20.0
2021-08-26T04:49:03,42.805,6.029,0.028,0.004,0.007,102.0,103.0,100.0,13.4,1505.2,331.2,-0.8,1.8,2470.462,13.28,0.028,81.9
2021-08-26T04:52:02,42.805,6.029,0.031,0.008,0.063,100.0,103.0,101.0,13.4,1505.2,328.2,-0.8,1.8,2470.486,13.28,0.032,75.5
2021-08-26T04:55:03,42.805,6.029,0.026,-0.006,-0.025,102.0,103.0,100.0,13.4,1505.2,325.1,-0.8,1.8,2470.471,13.28,0.026,103.0
2021-08-26T04:58:03,42.805,6.029,0.016,-0.002,0.007,101.0,103.0,101.0,13.4,1505.2,328.7,-0.8,1.8,2470.502,13.28,0.016,97.1
2021-08-26T05:04:02,42.805,6.029,0.032,-0.007,0.017,101.0,102.0,100.0,13.4,1505.2,331.2,-0.8,1.8,2470.501,13.28,0.032,102.3
2021-08-26T05:07:02,42.805,6.029,0.004,-0.004,0.01,99.0,104.0,101.0,13.4,1505.2,325.5,-0.7,1.9,2470.508,13.28,0.005,135.0
2021-08-26T05:10:03,42.805,6.029,0.013,0.0,-0.019,100.0,102.0,100.0,13.4,1505.2,326.3,-0.8,1.8,2470.496,13.28,0.013,90.0
2021-08-26T05:13:03,42.805,6.029,0.015,-0.013,-0.017,101.0,101.0,100.0,13.4,1505.2,327.2,-0.8,1.8,2470.512,13.28,0.019,130.9
2021-08-26T05:16:02,42.805,6.029,0.038,0.005,0.02,99.0,103.0,101.0,13.4,1505.2,327.2,-0.8,1.8,2470.482,13.28,0.038,82.5
2021-08-26T05:19:03,42.805,6.029,0.027,0.008,0.02,99.0,102.0,100.0,13.3,1505.2,328.4,-0.7,1.8,2470.529,13.28,0.028,73.5
2021-08-26T05:22:02,42.805,6.029,0.012,0.012,0.023,102.0,103.0,99.0,13.4,1505.2,329.1,-0.7,1.8,2470.467,13.28,0.016,45.0
2021-08-26T05:25:03,42.805,6.029,0.036,0.024,0.037,101.0,102.0,99.0,13.4,1505.2,329.1,-0.8,1.8,2470.481,13.28,0.043,56.3
2021-08-26T05:28:03,42.805,6.029,0.031,-0.015,0.004,100.0,103.0,100.0,13.4,1505.2,328.3,-0.8,1.9,2470.49,13.28,0.034,115.8
2021-08-26T05:31:03,42.805,6.029,0.007,-0.012,0.011,100.0,104.0,101.0,13.3,1505.2,329.7,-0.8,1.8,2470.476,13.28,0.013,149.7
2021-08-26T05:34:03,42.805,6.029,0.014,-0.018,-0.005,100.0,103.0,100.0,13.3,1505.2,327.9,-0.8,1.8,2470.495,13.28,0.022,142.1
2021-08-26T05:37:02,42.805,6.029,-0.005,-0.006,0.025,101.0,101.0,101.0,13.3,1505.2,328.6,-0.8,1.8,2470.487,13.28,0.007,219.8
2021-08-26T05:40:03,42.805,6.029,0.013,-0.004,0.006,102.0,101.0,100.0,13.4,1505.2,330.0,-0.7,1.8,2470.477,13.28,0.013,107.1
2021-08-26T05:43:03,42.805,6.029,0.011,-0.015,0.012,101.0,101.0,100.0,13.4,1505.2,330.2,-0.8,1.8,2470.475,13.28,0.018,143.7
2021-08-26T05:46:03,42.805,6.029,0.008,0.017,0.042,100.0,102.0,100.0,13.4,1505.2,328.8,-0.7,1.9,2470.474,13.28,0.018,25.2
2021-08-26T05:49:03,42.805,6.029,0.026,0.004,0.031,101.0,102.0,100.0,13.4,1505.2,325.1,-0.7,1.8,2470.515,13.28,0.026,81.3
2021-08-26T05:52:02,42.805,6.029,0.013,-0.005,0.008,99.0,104.0,101.0,13.3,1505.2,326.6,-0.8,1.8,2470.527,13.28,0.013,111.0
2021-08-26T05:55:03,42.805,6.029,0.029,0.0,0.007,101.0,102.0,100.0,13.4,1505.2,327.1,-0.8,1.9,2470.493,13.28,0.028,90.0
2021-08-26T05:58:03,42.805,6.029,0.033,-0.001,0.022,102.0,102.0,100.0,13.4,1505.2,328.6,-0.7,1.8,2470.487,13.28,0.033,91.7
2021-08-26T06:04:02,42.805,6.029,0.021,-0.012,0.001,101.0,102.0,100.0,13.3,1505.2,328.3,-0.8,1.8,2470.538,13.28,0.024,119.7
2021-08-26T06:07:02,42.805,6.029,0.023,-0.022,-0.011,101.0,103.0,100.0,13.3,1505.2,324.9,-0.8,1.8,2470.546,13.28,0.031,133.7
2021-08-26T06:10:03,42.805,6.029,0.024,0.022,0.028,101.0,102.0,99.0,13.3,1505.2,326.4,-0.7,1.8,2470.567,13.28,0.032,47.5
2021-08-26T06:13:03,42.805,6.029,0.001,0.005,0.01,101.0,102.0,100.0,13.4,1505.2,325.5,-0.7,1.8,2470.532,13.28,0.005,11.3
2021-08-26T06:16:03,42.805,6.029,0.018,-0.003,0.008,101.0,102.0,101.0,13.4,1505.2,329.0,-0.7,1.8,2470.497,13.28,0.018,99.5
2021-08-26T06:19:03,42.805,6.029,0.026,0.0,0.024,101.0,101.0,100.0,13.4,1505.2,329.1,-0.8,1.8,2470.53,13.28,0.026,90.0
2021-08-26T06:22:02,42.805,6.029,0.016,-0.012,0.0,100.0,103.0,100.0,13.3,1505.2,328.4,-0.7,1.8,2470.536,13.28,0.02,126.9
2021-08-26T06:25:03,42.805,6.029,0.023,-0.004,0.028,99.0,101.0,101.0,13.4,1505.2,329.2,-0.7,1.8,2470.495,13.28,0.023,99.9
2021-08-26T06:28:03,42.805,6.029,0.016,0.002,0.001,99.0,102.0,102.0,13.4,1505.2,329.1,-0.7,1.8,2470.539,13.28,0.016,82.9
2021-08-26T06:31:03,42.805,6.029,0.018,0.017,0.049,100.0,101.0,100.0,13.3,1505.2,324.9,-0.7,1.8,2470.569,13.28,0.024,46.6
2021-08-26T06:34:03,42.805,6.029,0.024,-0.019,0.021,101.0,103.0,100.0,13.4,1505.2,331.3,-0.8,1.8,2470.503,13.28,0.03,128.4
2021-08-26T06:37:02,42.805,6.029,0.034,-0.009,0.028,101.0,102.0,100.0,13.4,1505.2,327.3,-0.8,1.8,2470.488,13.28,0.035,104.8
2021-08-26T06:40:03,42.805,6.029,0.026,-0.011,-0.003,101.0,103.0,100.0,13.3,1505.2,329.7,-0.7,1.8,2470.53,13.28,0.028,112.9
2021-08-26T06:43:03,42.805,6.029,-0.013,-0.01,0.007,100.0,101.0,101.0,13.4,1505.2,328.8,-0.8,1.8,2470.531,13.28,0.016,232.4
2021-08-26T06:46:03,42.805,6.029,0.006,-0.007,0.0,101.0,103.0,100.0,13.3,1505.2,327.1,-0.8,1.8,2470.508,13.28,0.009,139.4
2021-08-26T06:49:03,42.805,6.029,0.042,0.001,0.004,100.0,106.0,100.0,13.4,1505.2,325.9,-0.8,1.8,2470.517,13.28,0.042,88.6
2021-08-26T06:52:02,42.805,6.029,0.016,0.002,0.03,100.0,102.0,101.0,13.4,1505.2,325.8,-0.8,1.8,2470.528,13.28,0.016,82.9
2021-08-26T06:55:03,42.805,6.029,0.012,0.013,0.019,100.0,101.0,101.0,13.4,1505.2,326.7,-0.7,1.8,2470.549,13.28,0.017,42.7
2021-08-26T06:58:03,42.805,6.029,0.038,-0.014,0.036,101.0,103.0,100.0,13.4,1505.2,325.8,-0.7,1.8,2470.545,13.28,0.04,110.2
2021-08-26T07:04:02,42.805,6.029,0.019,0.006,0.046,100.0,102.0,100.0,13.4,1505.2,328.5,-0.8,1.8,2470.547,13.28,0.019,72.5
2021-08-26T07:07:02,42.805,6.029,0.025,0.005,0.023,102.0,102.0,101.0,13.4,1505.2,328.9,-0.8,1.8,2470.536,13.28,0.025,78.7
2021-08-26T07:10:03,42.805,6.029,0.016,-0.01,-0.003,101.0,102.0,100.0,13.4,1505.2,325.6,-0.7,1.8,2470.522,13.28,0.018,122.0
2021-08-26T07:13:03,42.805,6.029,0.031,-0.007,0.005,100.0,103.0,100.0,13.3,1505.2,325.0,-0.8,1.8,2470.534,13.28,0.031,102.7
2021-08-26T07:16:03,42.805,6.029,0.008,-0.007,-0.006,100.0,103.0,100.0,13.4,1505.2,328.9,-0.8,1.8,2470.539,13.28,0.01,131.2
2021-08-26T07:19:03,42.805,6.029,0.017,0.001,-0.006,101.0,103.0,100.0,13.4,1505.2,330.3,-0.7,1.8,2470.551,13.28,0.017,86.6
2021-08-26T07:22:03,42.805,6.029,0.023,-0.001,-0.014,101.0,103.0,100.0,13.3,1505.2,330.6,-0.7,1.8,2470.578,13.28,0.023,92.5
2021-08-26T07:25:03,42.805,6.029,0.027,-0.001,-0.018,100.0,103.0,100.0,13.4,1505.2,326.6,-0.8,1.8,2470.522,13.28,0.027,92.1
2021-08-26T07:28:03,42.805,6.029,0.042,-0.007,0.02,102.0,103.0,100.0,13.3,1505.2,328.9,-0.7,1.8,2470.549,13.28,0.042,99.5
2021-08-26T07:31:03,42.805,6.029,0.017,-0.024,-0.014,100.0,103.0,100.0,13.3,1505.2,325.0,-0.7,1.8,2470.545,13.28,0.029,144.7
2021-08-26T07:34:03,42.805,6.029,0.022,-0.02,0.017,102.0,102.0,99.0,13.4,1505.2,325.1,-0.8,1.8,2470.55,13.28,0.029,132.3
2021-08-26T07:37:02,42.805,6.029,0.012,-0.008,-0.013,100.0,103.0,100.0,13.4,1505.2,326.1,-0.7,1.8,2470.55,13.28,0.014,123.7
2021-08-26T07:40:03,42.805,6.029,0.046,0.014,0.01,100.0,104.0,100.0,13.4,1505.2,327.6,-0.8,1.8,2470.576,13.28,0.048,73.1
2021-08-26T07:43:03,42.805,6.029,0.028,-0.01,-0.005,101.0,102.0,100.0,13.4,1505.2,326.9,-0.8,1.8,2470.615,13.28,0.029,109.6
2021-08-26T07:46:03,42.805,6.029,0.028,0.012,0.023,100.0,106.0,100.0,13.4,1505.2,329.4,-0.8,1.8,2470.56,13.28,0.03,66.8
2021-08-26T07:49:03,42.805,6.029,0.053,0.0,0.065,100.0,104.0,100.0,13.3,1505.2,327.8,-0.7,1.8,2470.579,13.28,0.053,90.0
2021-08-26T07:52:02,42.805,6.029,0.029,-0.025,-0.046,100.0,103.0,100.0,13.3,1505.2,328.9,-0.8,1.8,2470.568,13.28,0.038,130.8
2021-08-26T07:55:03,42.805,6.029,0.015,-0.004,0.017,100.0,104.0,100.0,13.3,1505.2,328.3,-0.7,1.8,2470.598,13.28,0.015,104.9
2021-08-26T07:58:03,42.805,6.029,0.007,0.016,0.016,100.0,104.0,100.0,13.4,1505.2,329.0,-0.8,1.8,2470.596,13.28,0.017,23.6
2021-08-26T08:04:02,42.805,6.029,0.035,-0.021,0.012,100.0,103.0,100.0,13.4,1505.2,326.6,-0.7,1.9,2470.599,13.28,0.04,121.0
2021-08-26T08:07:02,42.805,6.029,0.029,-0.005,0.009,100.0,103.0,100.0,13.4,1505.2,328.5,-0.8,1.8,2470.578,13.28,0.029,99.8
2021-08-26T08:10:03,42.805,6.029,0.055,-0.024,0.023,101.0,104.0,100.0,13.4,1505.2,329.5,-0.7,1.8,2470.617,13.28,0.06,113.6
2021-08-26T08:13:03,42.805,6.029,0.038,-0.015,-0.014,100.0,105.0,100.0,13.4,1505.2,326.4,-0.7,1.8,2470.595,13.28,0.04,111.5
2021-08-26T08:16:03,42.805,6.029,0.007,0.006,0.011,100.0,103.0,100.0,13.3,1505.2,324.8,-0.8,1.8,2470.596,13.28,0.009,49.4
2021-08-26T08:19:03,42.805,6.029,0.014,-0.019,-0.02,101.0,103.0,99.0,13.4,1505.2,325.3,-0.8,1.8,2470.602,13.28,0.023,143.6
2021-08-26T08:22:02,42.805,6.029,0.037,-0.005,-0.012,100.0,102.0,100.0,13.4,1505.2,326.1,-0.8,1.8,2470.593,13.28,0.037,97.7
2021-08-26T08:25:03,42.805,6.029,0.011,-0.005,0.006,100.0,102.0,100.0,13.3,1505.2,325.2,-0.7,1.8,2470.606,13.28,0.012,114.4
2021-08-26T08:28:03,42.805,6.029,0.035,-0.006,0.025,101.0,103.0,100.0,13.4,1505.2,329.8,-0.7,1.8,2470.569,13.28,0.035,99.7
2021-08-26T08:31:03,42.805,6.029,0.032,0.009,0.015,100.0,102.0,100.0,13.4,1505.2,327.0,-0.7,1.8,2470.585,13.28,0.033,74.3
2021-08-26T08:34:03,42.805,6.029,0.039,-0.031,-0.005,100.0,102.0,100.0,13.3,1505.2,328.9,-0.7,1.8,2470.612,13.28,0.049,128.5
2021-08-26T08:37:03,42.805,6.029,0.035,-0.005,0.048,101.0,104.0,100.0,13.4,1505.2,325.8,-0.8,1.9,2470.52,13.28,0.035,98.1
2021-08-26T08:40:03,42.805,6.029,0.002,-0.011,-0.027,99.0,102.0,100.0,13.4,1505.2,330.9,-0.8,1.8,2470.599,13.28,0.011,169.7
2021-08-26T08:43:03,42.805,6.029,0.046,-0.025,-0.032,100.0,102.0,100.0,13.4,1505.2,326.9,-0.8,1.8,2470.592,13.28,0.052,118.5
2021-08-26T08:46:03,42.805,6.029,0.036,-0.015,-0.001,99.0,103.0,100.0,13.4,1505.2,328.0,-0.7,1.8,2470.552,13.28,0.039,112.6
2021-08-26T08:49:03,42.805,6.029,0.021,0.015,0.013,100.0,103.0,100.0,13.4,1505.2,330.0,-0.7,1.8,2470.527,13.28,0.025,54.5
2021-08-26T08:52:03,42.805,6.029,0.055,-0.017,0.033,100.0,102.0,100.0,13.4,1505.2,330.3,-0.7,1.8,2470.593,13.28,0.057,107.2
2021-08-26T08:55:03,42.805,6.029,0.03,-0.009,0.001,100.0,103.0,100.0,13.4,1505.2,326.7,-0.8,1.8,2470.593,13.28,0.031,106.7
2021-08-26T08:58:03,42.805,6.029,0.002,-0.001,0.005,101.0,102.0,100.0,13.3,1505.2,328.2,-0.8,1.8,2470.574,13.28,0.002,116.6
2021-08-26T09:04:02,42.805,6.029,0.019,0.015,0.003,100.0,102.0,100.0,13.3,1505.2,326.3,-0.7,1.8,2470.618,13.28,0.024,51.7
2021-08-26T09:07:03,42.805,6.029,0.014,-0.026,0.016,100.0,101.0,100.0,13.4,1505.2,330.4,-0.8,1.9,2470.64,13.28,0.029,151.7
2021-08-26T09:10:03,42.805,6.029,0.035,-0.013,-0.011,100.0,100.0,100.0,13.3,1505.2,329.3,-0.8,1.8,2470.606,13.28,0.037,110.4
2021-08-26T09:13:03,42.805,6.029,0.028,-0.004,0.021,100.0,102.0,100.0,13.3,1505.2,329.2,-0.7,1.8,2470.637,13.28,0.028,98.1
2021-08-26T09:16:03,42.805,6.029,0.022,-0.019,-0.023,100.0,103.0,99.0,13.3,1505.2,328.4,-0.7,1.8,2470.616,13.28,0.029,130.8
2021-08-26T09:19:03,42.805,6.029,0.014,-0.033,-0.028,100.0,102.0,100.0,13.3,1505.2,330.2,-0.8,1.8,2470.587,13.28,0.035,157.0
2021-08-26T09:22:03,42.805,6.029,0.004,-0.012,0.025,101.0,102.0,99.0,13.3,1505.2,328.0,-0.7,1.8,2470.64,13.28,0.012,161.6
2021-08-26T09:25:03,42.805,6.029,0.018,-0.018,0.005,99.0,102.0,100.0,13.4,1505.2,328.2,-0.7,1.8,2470.596,13.28,0.025,135.0
2021-08-26T09:28:03,42.805,6.029,0.03,-0.01,0.012,101.0,99.0,100.0,13.4,1505.2,326.7,-0.7,1.8,2470.586,13.28,0.031,108.4
2021-08-26T09:31:03,42.805,6.029,0.0,-0.011,0.002,101.0,101.0,100.0,13.4,1505.2,330.1,-0.8,1.8,2470.61,13.28,0.011,180.0
2021-08-26T09:34:03,42.805,6.029,0.036,0.005,0.021,99.0,102.0,101.0,13.4,1505.2,326.0,-0.8,1.9,2470.562,13.28,0.036,82.1
2021-08-26T09:37:03,42.805,6.029,-0.001,0.0,0.008,101.0,101.0,100.0,13.3,1505.2,326.6,-0.8,1.8,2470.592,13.28,0.001,270.0
2021-08-26T09:40:03,42.805,6.029,0.026,-0.003,0.014,101.0,101.0,99.0,13.3,1505.2,326.8,-0.7,1.8,2470.62,13.28,0.026,96.6
2021-08-26T09:43:03,42.805,6.029,0.036,-0.022,-0.003,100.0,102.0,100.0,13.4,1505.2,325.8,-0.8,1.8,2470.56,13.28,0.042,121.4
2021-08-26T09:46:03,42.805,6.029,-0.004,-0.007,0.006,99.0,102.0,101.0,13.3,1505.2,324.8,-0.8,1.8,2470.667,13.28,0.008,209.7
2021-08-26T09:49:03,42.805,6.029,0.01,-0.042,-0.021,101.0,102.0,100.0,13.4,1505.2,331.2,-0.7,1.8,2470.6,13.28,0.043,166.6
2021-08-26T09:52:03,42.805,6.029,0.024,-0.018,0.017,100.0,103.0,99.0,13.3,1505.2,326.6,-0.7,1.8,2470.599,13.28,0.03,126.9
2021-08-26T09:55:03,42.805,6.029,-0.001,0.006,0.01,101.0,102.0,100.0,13.4,1505.2,326.7,-0.7,1.8,2470.593,13.28,0.006,350.5
2021-08-26T09:58:03,42.805,6.029,0.031,-0.034,-0.003,100.0,101.0,100.0,13.4,1505.2,329.7,-0.8,1.8,2470.598,13.28,0.046,137.6
2021-08-26T10:04:02,42.805,6.029,0.033,-0.024,0.0,100.0,101.0,100.0,13.3,1505.2,327.4,-0.8,1.8,2470.652,13.28,0.04,126.0